| time (UTC) | temp C | wind direction | speed KPH | gust KPH | rain 1hr cm | rain 24hr cm | rain mn cm | humidity % | barometer mb |
| 20260507220002 | 15 | 360 | 8.0 | 0.0 | 0.00 | 0.00 | 0.18 | 82 | 845.3 |
| 20260507214530 | 16 | 360 | 12.9 | 0.0 | 0.00 | 0.00 | 0.18 | 82 | 845.1 |
| 20260507213107 | 16 | 360 | 12.9 | 0.0 | 0.00 | 0.00 | 0.18 | 84 | 844.9 |
| 20260507211521 | 15 | 360 | 14.5 | 0.0 | 0.00 | 0.00 | 0.18 | 86 | 844.8 |
| 20260507210053 | 15 | 360 | 16.1 | 0.0 | 0.00 | 0.00 | 0.18 | 86 | 844.7 |
| 20260507204512 | 15 | 360 | 17.7 | 0.0 | 0.00 | 0.00 | 0.18 | 88 | 844.7 |
| 20260507203048 | 15 | 360 | 14.5 | 0.0 | 0.00 | 0.00 | 0.18 | 90 | 844.5 |
| 20260507201507 | 15 | 360 | 17.7 | 0.0 | 0.00 | 0.00 | 0.18 | 92 | 844.5 |
| 20260507200033 | 14 | 360 | 14.5 | 0.0 | 0.00 | 0.00 | 0.18 | 92 | 844.8 |
| 20260507194623 | 14 | 360 | 16.1 | 0.0 | 0.00 | 0.00 | 0.15 | 92 | 845.0 |
| 20260507193017 | 14 | 360 | 11.3 | 0.0 | 0.00 | 0.00 | 0.15 | 93 | 845.1 |
| 20260507191550 | 14 | 360 | 12.9 | 0.0 | 0.00 | 0.00 | 0.15 | 93 | 844.9 |
| 20260507190006 | 14 | 360 | 14.5 | 0.0 | 0.00 | 0.00 | 0.15 | 92 | 845.4 |
| 20260507184530 | 15 | 360 | 19.3 | 0.0 | 0.00 | 0.00 | 0.13 | 91 | 844.7 |
| 20260507183045 | 15 | 360 | 14.5 | 0.0 | 0.00 | 0.00 | 0.08 | 90 | 845.2 |
| 20260507181503 | 15 | 360 | 16.1 | 0.0 | 0.00 | 0.00 | 0.08 | 89 | 844.8 |
| 20260507180025 | 16 | 360 | 14.5 | 0.0 | 0.00 | 0.00 | 0.08 | 88 | 844.7 |
| 20260507174552 | 16 | 360 | 14.5 | 0.0 | 0.00 | 0.00 | 0.08 | 88 | 844.6 |
| 20260507173008 | 17 | 360 | 14.5 | 0.0 | 0.00 | 0.00 | 0.08 | 89 | 844.6 |
| 20260507171545 | 17 | 360 | 14.5 | 0.0 | 0.00 | 0.00 | 0.08 | 90 | 844.6 |
| 20260507170057 | 17 | 360 | 16.1 | 0.0 | 0.00 | 0.00 | 0.08 | 88 | 844.8 |
| 20260507164520 | 19 | 19 | 8.0 | 0.0 | 0.00 | 0.00 | 0.08 | 90 | 844.6 |
| 20260507163040 | 18 | 360 | 6.4 | 0.0 | 0.00 | 0.00 | 0.08 | 91 | 844.5 |
| 20260507161601 | 18 | 360 | 6.4 | 0.0 | 0.00 | 0.00 | 0.08 | 93 | 844.5 |
| 20260507160025 | 17 | 360 | 6.4 | 0.0 | 0.00 | 0.00 | 0.08 | 93 | 844.6 |
| 20260507154537 | 17 | 360 | 4.8 | 0.0 | 0.00 | 0.00 | 0.08 | 94 | 844.7 |
| 20260507153003 | 17 | 360 | 8.0 | 0.0 | 0.00 | 0.00 | 0.08 | 94 | 844.9 |
| 20260507151530 | 18 | 48 | 1.6 | 0.0 | 0.00 | 0.00 | 0.08 | 95 | 844.6 |
| 20260507150058 | 17 | 42 | 1.6 | 0.0 | 0.00 | 0.00 | 0.08 | 96 | 845.0 |
| 20260507144512 | 17 | 360 | 1.6 | 0.0 | 0.00 | 0.00 | 0.08 | 96 | 845.1 |
| 20260507143037 | 17 | 360 | 4.8 | 0.0 | 0.00 | 0.00 | 0.08 | 95 | 845.2 |